[ hide orbit diagram ]
For accurate long-term ephemerides, please instead use our Horizons system.This orbit viewer was implemented using two-body methods, and hence should not be used for determining accurate long-term trajectories (over several years or decades) or planetary encounter circumstances.
Orbital Elements at Epoch 2459000.5 (2020-May-31.0) TDB
Reference: JPL 35 (heliocentric ecliptic J2000)
Element | Value | Uncertainty (1-sigma) | Units |
e | .1201427807191884 | 3.0688e-08 | |
a | 2.331037940130579 | 7.1655e-09 | au |
q | 2.050980560041362 | 7.227e-08 | au |
i | 1.865119770723545 | 3.0311e-06 | deg |
node | 151.1141517491352 | 0.00010417 | deg |
peri | 87.72576516517293 | 0.00010519 | deg |
M | 355.4408959481128 | 1.3293e-05 | deg |
tp | 2459016.962638569949 (2020-Jun-16.46263857) | 4.7979e-05 | TDB |
period | 1299.937403869616 3.56 | 5.9939e-06 1.641e-08 | d yr |
n | .2769364116521014 | 1.2769e-09 | deg/d |
Q | 2.611095320219795 | 8.0264e-09 | au |
|
| | Orbit Determination Parameters
Additional Information
|
[ show covariance matrix ]
Physical Parameter Table
Parameter |
Symbol |
Value |
Units |
Sigma |
Reference |
Notes |
absolute magnitude |
H |
13.7 |
|
n/a |
MPO365307 |
|
diameter |
diameter |
5.277 |
km |
0.098 |
urn:nasa:pds:neowise_diameters_albedos::2.0[mainbelt] (http://adsabs.harvard.edu/abs/2011ApJ...741...68M) |
|
rotation period |
rot_per |
3.46 |
h |
n/a |
LCDB (Rev. 2020-October); Warner et al., 2009 |
Result based on less than full coverage, so that the period may be wrong by 30 percent or so. Published Reference List: [Chang, C.-K.; Lin, H.-W.; Ip, W.-H.; Prince, T.A.; et al. (2016) Astrophys. J. Sup. Ser. 227, A20.] |
geometric albedo |
albedo |
0.252 |
|
0.028 |
urn:nasa:pds:neowise_diameters_albedos::2.0[mainbelt] (http://adsabs.harvard.edu/abs/2011ApJ...741...68M) |
|
|
4933 Tylerlinder | Discovered 1984 Mar. 2 by H. Debehogne at the European Southern Observatory. |
Tyler Linder (b. 1986) is an assiduous observer of minor planets at the Astronomical Research Institute. As a co-founder of Southern Sky Near Earth Observations he has expanded follow-up observations to CTIO, and been responsible for making follow-up observations in both hemispheres. Name suggested by S. Foglia. |
NOTE: some special characters may not display properly (any characters within {} are an attempt to place the proper accent above a character) |
Reference: MPC batch dated 2015-02-03 | Last Updated: 2015-02-04 |
|
[ show close-approach data ]
Alternate Designations
1984 EN1 = 1978 QN3 = 1988 JY |
|
|